Skip Page Navigation
NASA JPL Caltech
NASA Logo - Jet Propulsion Laboratory + View the NASA Portal
+ Near-Earth Object (NEO) Program
Search JPL
JPL Home Earth Solar System Stars & Galaxies Technology
JPL Solar System Dynamics
BODIES ORBITS EPHEMERIDES TOOLS PHYSICAL DATA DISCOVERY FAQ SITE MAP
JPL Small-Body Database Browser
Search: [ help ]  
9491 Thooft (1205 T-1)
Classification: Main-belt Asteroid          SPK-ID: 2009491
Ephemeris | Orbit Diagram | Orbital Elements | Physical Parameters | Discovery Circumstances ]

[ hide orbit diagram ]
Orbit Diagram
Note: Make sure you have Java enabled on your browser to see the applet. This applet is provided as a 3D orbit visualization tool. The applet was implemented using 2-body methods, and hence should not be used for determining accurate long-term trajectories (over several years or decades) or planetary encounter circumstances. For accurate long-term ephemerides, please instead use our Horizons system.
Orbit Viewer

Additional Notes: the orbits shown in the applet are color coded. The planets are white lines, and the asteroid/comet is a blue line. The bright white line indicates the portion of the orbit that is above the ecliptic plane, and the darker portion is below the ecliptic plane. Likewise for the asteroid/comet orbit, the light blue indicates the portion above the ecliptic plane, and the dark blue the portion below the ecliptic plane.

Orbit Viewer applet originally written and kindly provided by Osamu Ajiki (AstroArts), and further modified by Ron Baalke (JPL).


Orbital Elements at Epoch 2456400.5 (2013-Apr-18.0) TDB
Reference: MPO256934 (heliocentric ecliptic J2000)
 Element Value Uncertainty (1-sigma)   Units 
e 0.1331177 n/a  
a 2.2149955 n/a AU
q 1.9201404 n/a AU
i 5.04866 n/a deg
node 350.41017 n/a deg
peri 263.36473 n/a deg
M 219.98746 n/a deg
tp 2456868.7978070
(2014-Jul-30.29780700)
n/a JED
period 1204.0865091
3.30
n/a
n/a
d
yr
n 0.29898184 n/a deg/d
Q 2.5098506 n/a AU
  Orbit Determination Parameters
   # obs. used (total)      542  
   first obs. used      1971-??-??  
   last obs. used      2013-03-15  
   # oppositions      13  
   planetary ephem.      DE403  
   condition code      0  
   fit RMS      0.51  
   data source      MPC:mpn  
   producer      MPCLINUX  

Additional Information
 T_jup = 3.637 

Ephemeris | Orbit Diagram | Orbital Elements | Physical Parameters | Discovery Circumstances ]

Physical Parameter Table
Parameter Symbol Value Units Sigma Reference Notes
absolute magnitude H 15.3 mag n/a PDS3 (MPC 32651)  

9491 Thooft           Discovered 1971 Mar. 25 by C. J. van Houten and I. van Houten-Groeneveld on Palomar Schmidt plates taken by T. Gehrels.
Gerardus 't Hooft (b. 1946) is professor of physics at University of Utrecht. Together with his colleague M. J. G. Veltman he won the 1999 Nobel Prize in physics, awarded for placing the theory of particle physics on a firmer mathematical foundation and for elucidating the quantum structure of electroweak interactions.
NOTE: some special characters may not display properly (any characters within {} are an attempt to place the proper accent above a character)
Reference: 20000320/MPCPages.arcLast Updated: 2013-03-29

Alternate Designations
 1205 T-1 = 1997 CR4 
Ephemeris | Orbit Diagram | Orbital Elements | Physical Parameters | Discovery Circumstances ]
ABOUT SSD CREDITS/AWARDS PRIVACY/COPYRIGHT GLOSSARY LINKS
FirstGov 2013-May-26 01:04 UT
(server date/time)  
NASA Home Page
Site Manager:   Donald K. Yeomans
Webmaster  Alan B. Chamberlin